"Platform","Muskegon M20 ReCON Buoy"
"NDBC ID","45161"
"Latitude (deg)",43.18481
"Longitude (deg)",-86.35647
"Water Depth (m)",22
"Sensor Device","Campbell CR1000X Logger analog input"
"Sensor Type","Solar panel voltage"
"Sensor Units","voltage"
"Measurement","2 minute average of data samples taken at 5 second interval"
"Time means","Time at beginning of averaging period (UTC time zone)"

"Note:","This data was collected for research purposes."
"Note:","Minimal quality checking has been performed so data may contain known or unknown errors."
"Note:","Data provided by NOAA. Please credit NOAA."
"Note:","For more info see www.glerl.noaa.gov/res/recon"

"Time (UTC)","Solar Panel"
"YYYY/MM/DD HH:MM","volts"
2020/07/30 13:02, 18.196
2020/07/30 13:04, 18.68302
2020/07/30 13:06, 18.46364
2020/07/30 13:08, 18.53456
2020/07/30 13:10, 18.53849
2020/07/30 13:12, 18.70704
2020/07/30 13:14, 18.39523
2020/07/30 13:16, 17.80279
2020/07/30 13:18, 16.97863
2020/07/30 13:20, 18.21566
2020/07/30 13:24, 18.87097
2020/07/30 13:26, 18.62581
2020/07/30 13:28, 18.79361
2020/07/30 13:30, 18.60087
2020/07/30 13:32, 18.45306
2020/07/30 13:34, 18.20282
2020/07/30 13:36, 18.10033
2020/07/30 13:38, 18.27261
2020/07/30 13:40, 18.03602
2020/07/30 13:42, 17.88014
2020/07/30 13:44, 18.0958
2020/07/30 13:46, 18.05407
2020/07/30 13:48, 18.77743
2020/07/30 13:50, 18.38441
2020/07/30 13:52, 18.1775
2020/07/30 13:54, 18.16166
2020/07/30 13:56, 18.30328
2020/07/30 13:58, 18.34553
2020/07/30 14:00, 18.67752
2020/07/30 14:02, 19.03266
2020/07/30 14:04, 19.23258
2020/07/30 14:06, 19.15396
2020/07/30 14:08, 19.13557
2020/07/30 14:10, 19.15052
2020/07/30 14:12, 19.02608
2020/07/30 14:14, 18.79024
2020/07/30 14:16, 18.65672
2020/07/30 14:18, 18.82171
2020/07/30 14:20, 18.77832
2020/07/30 14:24, 18.94717
2020/07/30 14:26, 18.92323
2020/07/30 14:28, 18.93657
2020/07/30 14:30, 18.8431
2020/07/30 14:32, 18.67579
2020/07/30 14:34, 18.64872
2020/07/30 14:36, 18.50781
2020/07/30 14:38, 18.53498
2020/07/30 14:40, 18.64397
2020/07/30 14:42, 18.65204
2020/07/30 14:44, 18.8681
2020/07/30 14:46, 18.94715
2020/07/30 14:48, 18.96269
2020/07/30 14:50, 18.86494
2020/07/30 14:52, 18.92854
2020/07/30 14:54, 18.62158
2020/07/30 14:56, 18.51746
2020/07/30 14:58, 18.56073
2020/07/30 15:00, 18.7085
2020/07/30 15:02, 18.71854
2020/07/30 15:04, 18.93543
2020/07/30 15:06, 18.9198
2020/07/30 15:08, 18.93349
2020/07/30 15:10, 19.0626
2020/07/30 15:12, 19.00685
2020/07/30 15:14, 18.78835
2020/07/30 15:16, 18.63079
2020/07/30 15:18, 18.72626
2020/07/30 15:20, 18.81345
2020/07/30 15:24, 19.07915
2020/07/30 15:26, 19.08734
2020/07/30 15:28, 19.06038
2020/07/30 15:30, 19.05087
2020/07/30 15:32, 18.95716
2020/07/30 15:34, 18.66651
2020/07/30 15:36, 18.51595
2020/07/30 15:38, 18.53981
2020/07/30 15:40, 18.59932
2020/07/30 15:42, 18.59
2020/07/30 15:44, 18.85649
2020/07/30 15:46, 18.93014
2020/07/30 15:48, 18.76538
2020/07/30 15:50, 18.75989
2020/07/30 15:52, 18.66875
2020/07/30 15:54, 18.36199
2020/07/30 15:56, 18.2124
2020/07/30 15:58, 18.2562
2020/07/30 16:00, 18.33871
2020/07/30 16:02, 18.40067
2020/07/30 16:04, 18.70117
2020/07/30 16:06, 18.6926
2020/07/30 16:08, 18.70947
2020/07/30 16:10, 18.74195
2020/07/30 16:12, 18.49644
2020/07/30 16:14, 17.61165
2020/07/30 16:16, 17.80679
2020/07/30 16:18, 18.5756
2020/07/30 16:20, 18.54517
2020/07/30 16:24, 18.7777
2020/07/30 16:26, 18.76043
2020/07/30 16:28, 18.8505
2020/07/30 16:30, 18.82278
2020/07/30 16:32, 18.77425
2020/07/30 16:34, 18.51443
2020/07/30 16:36, 18.51955
2020/07/30 16:38, 18.58851
2020/07/30 16:40, 18.74233
2020/07/30 16:42, 18.68696
2020/07/30 16:44, 19.02506
2020/07/30 16:46, 18.93651
2020/07/30 16:48, 18.90401
2020/07/30 16:50, 18.8678
2020/07/30 16:52, 18.82996
2020/07/30 16:54, 18.67044
2020/07/30 16:56, 18.41908
2020/07/30 16:58, 18.434
2020/07/30 17:00, 18.53887
2020/07/30 17:02, 18.52582
2020/07/30 17:04, 18.78023
2020/07/30 17:06, 18.81875
2020/07/30 17:08, 18.88817
2020/07/30 17:10, 18.99464
2020/07/30 17:12, 19.01816
2020/07/30 17:14, 18.82019
2020/07/30 17:16, 18.43995
2020/07/30 17:18, 18.62087
2020/07/30 17:20, 18.75622
2020/07/30 17:24, 19.01668
2020/07/30 17:26, 19.03178
2020/07/30 17:28, 19.02117
2020/07/30 17:30, 19.02436
2020/07/30 17:32, 18.94506
2020/07/30 17:34, 18.74465
2020/07/30 17:36, 18.57383
2020/07/30 17:38, 18.30104
2020/07/30 17:40, 18.58546
2020/07/30 17:42, 18.66631
2020/07/30 17:44, 18.9515
2020/07/30 17:46, 18.97912
2020/07/30 17:48, 19.02051
2020/07/30 17:50, 19.05414
2020/07/30 17:52, 19.07769
2020/07/30 17:54, 18.89306
2020/07/30 17:56, 18.73455
2020/07/30 17:58, 18.81778
2020/07/30 18:00, 18.94394
2020/07/30 18:02, 19.0158
2020/07/30 18:04, 19.20383
2020/07/30 18:06, 19.15188
2020/07/30 18:08, 18.55486
2020/07/30 18:10, 18.06844
2020/07/30 18:12, 18.47679
2020/07/30 18:14, 18.6693
2020/07/30 18:16, 18.92591
2020/07/30 18:18, 18.46967
2020/07/30 18:20, 18.6064
2020/07/30 18:24, 18.2405
2020/07/30 18:26, 18.36429
2020/07/30 18:28, 18.66391
2020/07/30 18:30, 19.24019
2020/07/30 18:32, 19.22968
2020/07/30 18:34, 18.94566
2020/07/30 18:36, 18.65581
2020/07/30 18:38, 18.7378
2020/07/30 18:40, 18.78163
2020/07/30 18:42, 18.7793
2020/07/30 18:44, 19.02358
2020/07/30 18:46, 19.0455
2020/07/30 18:48, 19.04189
2020/07/30 18:50, 19.09364
2020/07/30 18:52, 19.03065
2020/07/30 18:54, 18.76534
2020/07/30 18:56, 18.56755
2020/07/30 18:58, 18.65836
2020/07/30 19:00, 18.80552
2020/07/30 19:02, 18.97051
2020/07/30 19:04, 19.12106
2020/07/30 19:06, 19.1575
2020/07/30 19:08, 19.15718
2020/07/30 19:10, 19.19372
2020/07/30 19:12, 19.04814
2020/07/30 19:14, 18.9622
2020/07/30 19:16, 18.7642
2020/07/30 19:18, 18.94968
2020/07/30 19:20, 18.87943
2020/07/30 19:24, 19.18162
2020/07/30 19:26, 19.25915
2020/07/30 19:28, 19.25725
2020/07/30 19:30, 19.29671
2020/07/30 19:32, 19.23205
2020/07/30 19:34, 19.0513
2020/07/30 19:36, 18.92459
2020/07/30 19:38, 18.96389
2020/07/30 19:40, 18.99714
2020/07/30 19:42, 19.08978
2020/07/30 19:44, 19.40429
2020/07/30 19:46, 19.47153
2020/07/30 19:48, 19.46472
2020/07/30 19:50, 19.48667
2020/07/30 19:52, 19.47004
2020/07/30 19:54, 19.19839
2020/07/30 19:56, 19.06257
2020/07/30 19:58, 19.14046
2020/07/30 20:00, 19.18394
2020/07/30 20:02, 19.39051
2020/07/30 20:04, 19.58258
2020/07/30 20:06, 19.59882
2020/07/30 20:08, 19.56126
2020/07/30 20:10, 19.52133
2020/07/30 20:12, 19.61807
2020/07/30 20:14, 19.44641
2020/07/30 20:16, 19.21653
2020/07/30 20:18, 19.26425
2020/07/30 20:20, 19.43979
2020/07/30 20:22, 19.55367
2020/07/30 20:24, 19.68696
2020/07/30 20:26, 19.62627
2020/07/30 20:28, 19.64876
2020/07/30 20:30, 19.53058
2020/07/30 20:32, 19.46726
2020/07/30 20:34, 19.08872
2020/07/30 20:36, 18.88984
2020/07/30 20:38, 19.00885
2020/07/30 20:40, 19.19602
2020/07/30 20:44, 19.50805
2020/07/30 20:46, 19.72657
2020/07/30 20:48, 19.7551
2020/07/30 20:50, 19.83907
2020/07/30 20:52, 19.82445
2020/07/30 20:54, 19.58451
2020/07/30 20:56, 19.50857
2020/07/30 20:58, 19.4701
2020/07/30 21:00, 19.40969
2020/07/30 21:02, 19.5371
2020/07/30 21:04, 19.77093
2020/07/30 21:06, 19.70478
2020/07/30 21:08, 19.78275
2020/07/30 21:10, 19.75718
2020/07/30 21:12, 19.77268
2020/07/30 21:14, 19.5416
2020/07/30 21:16, 19.28426
2020/07/30 21:18, 19.37207
2020/07/30 21:20, 19.58361
2020/07/30 21:24, 19.652
2020/07/30 21:26, 19.72
2020/07/30 21:28, 19.85497
2020/07/30 21:30, 19.85643
2020/07/30 21:32, 19.61928
2020/07/30 21:34, 19.38508
2020/07/30 21:36, 19.3799
2020/07/30 21:38, 19.48902
2020/07/30 21:40, 19.54553
2020/07/30 21:42, 19.5617
2020/07/30 21:44, 19.712
2020/07/30 21:46, 19.60217
2020/07/30 21:48, 19.69724
2020/07/30 21:50, 19.5646
2020/07/30 21:52, 19.54685
2020/07/30 21:54, 19.07758
2020/07/30 21:56, 18.86423
2020/07/30 21:58, 18.90583
2020/07/30 22:00, 19.32796
2020/07/30 22:02, 19.57817
2020/07/30 22:04, 19.618
2020/07/30 22:06, 19.49299
2020/07/30 22:08, 19.28108
2020/07/30 22:10, 19.33299
2020/07/30 22:12, 19.06704
2020/07/30 22:14, 18.54983
2020/07/30 22:16, 18.48453
2020/07/30 22:18, 18.87427
2020/07/30 22:20, 19.0745
2020/07/30 22:24, 19.55944
2020/07/30 22:26, 19.14719
2020/07/30 22:28, 19.24454
2020/07/30 22:30, 18.88111
2020/07/30 22:32, 18.70144
2020/07/30 22:34, 18.63082
2020/07/30 22:36, 18.63695
2020/07/30 22:38, 18.33119
2020/07/30 22:40, 18.50254
2020/07/30 22:42, 18.43852
2020/07/30 22:44, 19.29382
2020/07/30 22:46, 19.12806
2020/07/30 22:48, 18.80719
2020/07/30 22:50, 18.96671
2020/07/30 22:52, 18.92804
2020/07/30 22:54, 18.54618
2020/07/30 22:56, 17.79848
2020/07/30 22:58, 17.85297
2020/07/30 23:00, 17.95776
2020/07/30 23:02, 17.99866
2020/07/30 23:04, 18.58758
2020/07/30 23:06, 18.64032
2020/07/30 23:08, 18.69207
2020/07/30 23:10, 18.93432
2020/07/30 23:12, 18.75443
2020/07/30 23:14, 18.22987
2020/07/30 23:16, 17.67991
2020/07/30 23:18, 17.82641
2020/07/30 23:20, 17.49282
2020/07/30 23:24, 18.47886
2020/07/30 23:26, 18.07061
2020/07/30 23:28, 18.17218
2020/07/30 23:30, 18.27635
2020/07/30 23:32, 18.23734
2020/07/30 23:34, 18.09764
2020/07/30 23:36, 18.07089
2020/07/30 23:38, 18.77761
2020/07/30 23:40, 18.06856
2020/07/30 23:42, 17.26627
2020/07/30 23:44, 18.22384
2020/07/30 23:46, 18.04823
2020/07/30 23:48, 17.96774
2020/07/30 23:50, 17.85242
2020/07/30 23:52, 17.67908
2020/07/30 23:54, 17.34511
2020/07/30 23:56, 15.6987
2020/07/30 23:58, 17.13104
2020/07/31 00:00, 18.37014
2020/07/31 00:02, 18.02848
2020/07/31 00:04, 18.79661
2020/07/31 00:06, 18.26806
2020/07/31 00:08, 18.18721
2020/07/31 00:10, 18.57818
2020/07/31 00:12, 18.43025
2020/07/31 00:14, 18.33169
2020/07/31 00:16, 17.98572
2020/07/31 00:18, 18.41143
2020/07/31 00:20, 18.51569
2020/07/31 00:24, 18.93114
2020/07/31 00:26, 18.95996
2020/07/31 00:28, 19.00546
2020/07/31 00:30, 18.90935
2020/07/31 00:32, 18.74863
2020/07/31 00:34, 18.50026
2020/07/31 00:36, 18.2233
2020/07/31 00:38, 18.16246
2020/07/31 00:40, 18.09293
2020/07/31 00:42, 17.8957
2020/07/31 00:44, 18.39988
2020/07/31 00:46, 18.15668
2020/07/31 00:48, 17.84542
2020/07/31 00:50, 17.61045
2020/07/31 00:52, 17.21113
2020/07/31 00:54, 14.99633
2020/07/31 00:56, 13.88431
2020/07/31 00:58, 13.69469
2020/07/31 01:00, 13.42451
2020/07/31 01:02, 12.93635
2020/07/31 01:04, 13.15247
2020/07/31 01:06, 13.0448
2020/07/31 01:08, 12.82856
2020/07/31 01:10, 12.8031
2020/07/31 01:12, 12.66721
2020/07/31 01:14, 12.33032
2020/07/31 01:16, 12.87457
2020/07/31 01:18, 12.84108
2020/07/31 01:20, 12.35275
2020/07/31 01:24, 11.21005
2020/07/31 01:26, 10.04628
2020/07/31 01:28, 8.789688
2020/07/31 01:30, 7.558075
2020/07/31 01:32, 6.407118
2020/07/31 01:34, 5.406262
2020/07/31 01:36, 4.469948
2020/07/31 01:38, 3.636748
2020/07/31 01:40, 2.888625
2020/07/31 01:42, 2.213212
2020/07/31 01:44, 1.702754
2020/07/31 01:46, 1.237548
2020/07/31 01:48, 0.8743998
2020/07/31 01:50, 0.6117982
2020/07/31 01:52, 0.3932656
2020/07/31 01:54, 0.1898913
2020/07/31 01:56, 0.04334514
2020/07/31 09:44, 0.01718097
2020/07/31 09:46, 0.06121836
2020/07/31 09:48, 0.1307894
2020/07/31 09:50, 0.2262672
2020/07/31 09:52, 0.3370188
2020/07/31 09:54, 0.4500382
2020/07/31 09:56, 0.6523998
2020/07/31 09:58, 0.98419
2020/07/31 10:00, 1.44161
2020/07/31 10:02, 1.996811
2020/07/31 10:04, 2.723715
2020/07/31 10:06, 3.505591
2020/07/31 10:08, 4.352781
2020/07/31 10:10, 5.244307
2020/07/31 10:12, 6.111572
2020/07/31 10:14, 6.919525
2020/07/31 10:16, 7.697775
2020/07/31 10:18, 8.507474
2020/07/31 10:20, 9.303939
2020/07/31 10:24, 10.81659
2020/07/31 10:26, 11.45615
2020/07/31 10:28, 12.0538
2020/07/31 10:30, 12.62277
2020/07/31 10:32, 13.13039
2020/07/31 10:34, 13.52722
2020/07/31 10:36, 12.6809
2020/07/31 10:38, 12.08408
2020/07/31 10:40, 12.20717
2020/07/31 10:42, 12.46261
2020/07/31 10:44, 12.97813
2020/07/31 10:46, 13.20357
2020/07/31 10:48, 13.0854
2020/07/31 10:50, 14.32182
2020/07/31 10:52, 14.49043
2020/07/31 10:54, 14.51819
2020/07/31 10:56, 14.73577
2020/07/31 10:58, 14.64376
2020/07/31 11:00, 14.91737
2020/07/31 11:02, 15.09722
2020/07/31 11:04, 15.40466
2020/07/31 11:06, 15.27104
2020/07/31 11:08, 15.36136
2020/07/31 11:10, 15.67481
2020/07/31 11:12, 15.47432
2020/07/31 11:14, 15.52336
2020/07/31 11:16, 15.30967
2020/07/31 11:18, 15.61798
2020/07/31 11:20, 16.54035
2020/07/31 11:24, 17.98692
2020/07/31 11:26, 17.86924
2020/07/31 11:28, 17.30539
2020/07/31 11:30, 17.44416
2020/07/31 11:32, 17.37385
2020/07/31 11:34, 17.3296
2020/07/31 11:36, 16.29154
2020/07/31 11:38, 15.7439
2020/07/31 11:40, 18.10052
2020/07/31 11:42, 18.28328
2020/07/31 11:44, 18.39355
2020/07/31 11:46, 18.65512
2020/07/31 11:48, 18.59637
2020/07/31 11:50, 18.57221
2020/07/31 11:52, 18.51166
2020/07/31 11:54, 18.22076
2020/07/31 11:56, 18.07402
2020/07/31 11:58, 18.11837
2020/07/31 12:00, 18.26234
2020/07/31 12:02, 18.32718
2020/07/31 12:04, 18.58063
2020/07/31 12:06, 18.56986
2020/07/31 12:08, 18.57742
2020/07/31 12:10, 18.5864
2020/07/31 12:12, 18.50968
2020/07/31 12:14, 18.25957
2020/07/31 12:16, 18.05939
2020/07/31 12:18, 18.19834
2020/07/31 12:20, 18.29308
2020/07/31 12:24, 18.60963
2020/07/31 12:26, 17.33491
2020/07/31 12:28, 17.00991
2020/07/31 12:30, 18.41447
2020/07/31 12:32, 18.50969
2020/07/31 12:34, 17.09557
2020/07/31 12:36, 18.05524
2020/07/31 12:38, 18.40112
2020/07/31 12:40, 18.48696
2020/07/31 12:42, 18.563
2020/07/31 12:44, 18.79943
2020/07/31 12:46, 18.81116
2020/07/31 12:48, 18.76678
2020/07/31 12:50, 18.79495
2020/07/31 12:52, 18.78676
2020/07/31 12:54, 18.42473
2020/07/31 12:56, 18.26595
2020/07/31 12:58, 18.36468
2020/07/31 13:00, 18.41253
2020/07/31 13:02, 18.50282
2020/07/31 13:04, 18.75264
2020/07/31 13:06, 18.75002
2020/07/31 13:08, 18.77219
2020/07/31 13:10, 18.74954
2020/07/31 13:12, 18.6936
2020/07/31 13:14, 18.54571
2020/07/31 13:16, 18.40863
2020/07/31 13:18, 18.47305
2020/07/31 13:20, 18.62418
2020/07/31 13:24, 18.87352
2020/07/31 13:26, 18.89331
2020/07/31 13:28, 18.85319
2020/07/31 13:30, 18.78712
2020/07/31 13:32, 18.78796
2020/07/31 13:34, 18.53215
2020/07/31 13:36, 18.32945
2020/07/31 13:38, 18.23969
2020/07/31 13:40, 18.55086
2020/07/31 13:42, 18.53683
2020/07/31 13:44, 18.95606
2020/07/31 13:46, 19.04861
2020/07/31 13:48, 18.88118
2020/07/31 13:50, 18.68942
2020/07/31 13:52, 17.51784
2020/07/31 13:54, 16.56345
2020/07/31 13:56, 15.84207
2020/07/31 13:58, 17.25168
2020/07/31 14:00, 16.71175
2020/07/31 14:02, 18.54669
2020/07/31 14:04, 18.37514
2020/07/31 14:06, 18.59397
2020/07/31 14:08, 18.50955
2020/07/31 14:10, 17.5648
2020/07/31 14:12, 17.06604
2020/07/31 14:14, 16.05412
2020/07/31 14:16, 16.77141
2020/07/31 14:18, 18.86327
2020/07/31 14:20, 18.7146
2020/07/31 14:22, 18.54238
2020/07/31 14:24, 18.2696
2020/07/31 14:26, 19.2725
2020/07/31 14:28, 19.38133
2020/07/31 14:30, 19.34808
2020/07/31 14:32, 19.12193
2020/07/31 14:34, 18.91943
2020/07/31 14:36, 17.87605
2020/07/31 14:38, 18.85252
2020/07/31 14:40, 18.90185
2020/07/31 14:44, 19.1932
2020/07/31 14:46, 19.20773
2020/07/31 14:48, 19.11307
2020/07/31 14:50, 19.06364
2020/07/31 14:52, 19.13809
2020/07/31 14:54, 18.92562
2020/07/31 14:56, 18.82486
2020/07/31 14:58, 18.60058
2020/07/31 15:00, 18.80962
2020/07/31 15:02, 18.8371
2020/07/31 15:04, 18.93387
2020/07/31 15:06, 18.93018
2020/07/31 15:08, 18.86352
2020/07/31 15:10, 18.8415
2020/07/31 15:12, 18.89423
2020/07/31 15:14, 18.68451
2020/07/31 15:16, 18.60869
2020/07/31 15:18, 18.62338
2020/07/31 15:20, 18.62322
2020/07/31 15:24, 18.90855
2020/07/31 15:26, 18.94425
2020/07/31 15:28, 18.93652
2020/07/31 15:30, 19.03199
2020/07/31 15:32, 19.00499
2020/07/31 15:34, 18.82441
2020/07/31 15:36, 18.676
2020/07/31 15:38, 18.76011
2020/07/31 15:40, 18.80331
2020/07/31 15:42, 18.87019
2020/07/31 15:44, 19.10873
2020/07/31 15:46, 19.04513
2020/07/31 15:48, 19.03418
2020/07/31 15:50, 19.07781
2020/07/31 15:52, 19.06623
2020/07/31 15:54, 18.81176
2020/07/31 15:56, 18.46461
2020/07/31 15:58, 17.59999
2020/07/31 16:00, 18.8593
2020/07/31 16:02, 18.81518
2020/07/31 16:04, 19.19835
2020/07/31 16:06, 19.21282
2020/07/31 16:08, 19.22642
2020/07/31 16:10, 19.1447
2020/07/31 16:12, 19.1931
2020/07/31 16:14, 18.89203
2020/07/31 16:16, 17.7756
2020/07/31 16:18, 18.34724
2020/07/31 16:20, 19.01472
2020/07/31 16:24, 19.17941
2020/07/31 16:26, 19.14112
2020/07/31 16:28, 19.08765
2020/07/31 16:30, 19.13118
2020/07/31 16:32, 18.61619
2020/07/31 16:34, 14.7352
2020/07/31 16:36, 14.82898
2020/07/31 16:38, 16.92431
2020/07/31 16:40, 18.56058
2020/07/31 16:42, 18.74536
2020/07/31 16:44, 19.30979
2020/07/31 16:46, 19.23779
2020/07/31 16:48, 18.92912
2020/07/31 16:50, 18.50873
2020/07/31 16:52, 18.17779
2020/07/31 16:54, 18.19209
2020/07/31 16:56, 18.80407
2020/07/31 16:58, 18.67969
2020/07/31 17:00, 18.69533
2020/07/31 17:02, 18.4352
2020/07/31 17:04, 19.07173
2020/07/31 17:06, 19.03198
2020/07/31 17:08, 19.03834
2020/07/31 17:10, 19.06183
2020/07/31 17:12, 18.92464
2020/07/31 17:14, 18.64041
2020/07/31 17:16, 18.4345
2020/07/31 17:18, 18.41323
2020/07/31 17:20, 18.61744
2020/07/31 17:24, 18.95494
2020/07/31 17:26, 18.98486
2020/07/31 17:28, 18.98415
2020/07/31 17:30, 19.03188
2020/07/31 17:32, 18.91685
2020/07/31 17:34, 18.68567
2020/07/31 17:36, 18.51012
2020/07/31 17:38, 18.58962
2020/07/31 17:40, 18.67047
2020/07/31 17:42, 18.72793
2020/07/31 17:44, 19.01433
2020/07/31 17:46, 18.97943
2020/07/31 17:48, 18.96401
2020/07/31 17:50, 19.07455
2020/07/31 17:52, 19.02006
2020/07/31 17:54, 18.83226
2020/07/31 17:56, 18.68791
2020/07/31 17:58, 18.75664
2020/07/31 18:00, 18.92019
2020/07/31 18:02, 19.02091
2020/07/31 18:04, 19.28877
2020/07/31 18:06, 19.30776
2020/07/31 18:08, 19.27804
2020/07/31 18:10, 19.30431
2020/07/31 18:12, 19.24249
2020/07/31 18:14, 18.99611
2020/07/31 18:16, 18.83481
2020/07/31 18:18, 18.93463
2020/07/31 18:20, 19.04204
2020/07/31 18:24, 19.38299
2020/07/31 18:26, 19.41414
2020/07/31 18:28, 19.41007
2020/07/31 18:30, 19.41696
2020/07/31 18:32, 19.36152
2020/07/31 18:34, 19.21901
2020/07/31 18:36, 19.10113
2020/07/31 18:38, 19.1813
2020/07/31 18:40, 19.26073
2020/07/31 18:42, 19.31411
2020/07/31 18:44, 19.45648
2020/07/31 18:46, 19.34134
2020/07/31 18:48, 19.70998
2020/07/31 18:50, 18.96127
2020/07/31 18:52, 18.86336
2020/07/31 18:54, 18.73672
2020/07/31 18:56, 18.71676
2020/07/31 18:58, 18.75171
2020/07/31 19:00, 19.29807
2020/07/31 19:02, 19.37515
2020/07/31 19:04, 19.43202
2020/07/31 19:06, 19.17639
2020/07/31 19:08, 19.51398
2020/07/31 19:10, 19.56315
2020/07/31 19:12, 19.43742
2020/07/31 19:14, 19.3457
2020/07/31 19:16, 19.27122
2020/07/31 19:18, 19.32286
2020/07/31 19:20, 19.42884
2020/07/31 19:24, 19.69327
2020/07/31 19:26, 19.65698
2020/07/31 19:28, 19.44023
2020/07/31 19:30, 19.61496
2020/07/31 19:32, 19.64986
2020/07/31 19:34, 19.39692
2020/07/31 19:36, 19.28124
2020/07/31 19:38, 19.32775
2020/07/31 19:40, 19.39574
2020/07/31 19:42, 19.42962
2020/07/31 19:44, 19.65355
2020/07/31 19:46, 19.66072
2020/07/31 19:48, 19.72973
2020/07/31 19:50, 19.70683
2020/07/31 19:52, 19.62524
2020/07/31 19:54, 19.38553
2020/07/31 19:56, 19.23057
2020/07/31 19:58, 19.28729
2020/07/31 20:00, 19.3557
2020/07/31 20:02, 19.3243
2020/07/31 20:04, 19.66834
2020/07/31 20:06, 19.43142
2020/07/31 20:08, 19.53733
2020/07/31 20:10, 19.63301
2020/07/31 20:12, 19.66786
2020/07/31 20:14, 19.50366
2020/07/31 20:16, 19.33926
2020/07/31 20:18, 19.43324
2020/07/31 20:20, 19.53831
2020/07/31 20:24, 19.61304
2020/07/31 20:26, 19.85634
2020/07/31 20:28, 19.83121
2020/07/31 20:30, 19.75506
2020/07/31 20:32, 19.92221
2020/07/31 20:34, 19.66612
2020/07/31 20:36, 19.36292
2020/07/31 20:38, 19.43114
2020/07/31 20:40, 19.59481
2020/07/31 20:42, 19.60063
2020/07/31 20:44, 19.83231
2020/07/31 20:46, 19.89989
2020/07/31 20:48, 19.88797
2020/07/31 20:50, 19.89173
2020/07/31 20:52, 19.86297
2020/07/31 20:54, 19.67045
2020/07/31 20:56, 19.45479
2020/07/31 20:58, 19.33243
2020/07/31 21:00, 19.16138
2020/07/31 21:02, 19.31262
2020/07/31 21:04, 19.80931
2020/07/31 21:06, 19.82428
2020/07/31 21:08, 19.78829
2020/07/31 21:10, 19.82148
2020/07/31 21:12, 19.67244
2020/07/31 21:14, 19.50975
2020/07/31 21:16, 19.41381
2020/07/31 21:18, 19.16222
2020/07/31 21:20, 19.07135
2020/07/31 21:24, 19.5168
2020/07/31 21:26, 19.73411
2020/07/31 21:28, 19.77965
2020/07/31 21:30, 19.84094
2020/07/31 21:32, 19.76667
2020/07/31 21:34, 19.64519
2020/07/31 21:36, 19.60089
2020/07/31 21:38, 19.68376
2020/07/31 21:40, 19.42649
2020/07/31 21:42, 19.08039
2020/07/31 21:44, 19.4972
2020/07/31 21:46, 19.31687
2020/07/31 21:48, 19.51998
2020/07/31 21:50, 19.47898
2020/07/31 21:52, 19.25046
2020/07/31 21:54, 19.01479
2020/07/31 21:56, 18.81779
2020/07/31 21:58, 19.07726
2020/07/31 22:00, 19.32761
2020/07/31 22:02, 19.37177
2020/07/31 22:04, 19.82935
2020/07/31 22:06, 19.90109
2020/07/31 22:08, 19.9044
2020/07/31 22:10, 20.00753
2020/07/31 22:12, 19.97099
2020/07/31 22:14, 19.73774
2020/07/31 22:16, 19.67712
2020/07/31 22:18, 19.66845
2020/07/31 22:20, 19.72037
2020/07/31 22:22, 19.77922
2020/07/31 22:24, 19.8254
2020/07/31 22:26, 19.74903
2020/07/31 22:28, 19.72413
2020/07/31 22:30, 19.3177
2020/07/31 22:32, 19.54565
2020/07/31 22:34, 19.41218
2020/07/31 22:36, 19.21437
2020/07/31 22:38, 19.1635
2020/07/31 22:40, 19.45849
2020/07/31 22:44, 19.51848
2020/07/31 22:46, 19.35172
2020/07/31 22:48, 19.29953
2020/07/31 22:50, 19.0641
2020/07/31 22:52, 19.064
2020/07/31 22:54, 19.14554
2020/07/31 22:56, 19.28393
2020/07/31 22:58, 19.37872
2020/07/31 23:00, 19.23565
2020/07/31 23:02, 19.42522
2020/07/31 23:04, 19.68198
2020/07/31 23:06, 19.63624
2020/07/31 23:08, 19.69182
2020/07/31 23:10, 19.67193
2020/07/31 23:12, 19.86615
2020/07/31 23:14, 19.43997
2020/07/31 23:16, 18.98874
2020/07/31 23:18, 19.37898
2020/07/31 23:20, 19.50759
2020/07/31 23:24, 19.70461
2020/07/31 23:26, 19.67012
2020/07/31 23:28, 19.74422
2020/07/31 23:30, 19.73885
2020/07/31 23:32, 19.69045
2020/07/31 23:34, 19.4811
2020/07/31 23:36, 19.27571
2020/07/31 23:38, 19.35942
2020/07/31 23:40, 19.42191
2020/07/31 23:42, 19.45199
2020/07/31 23:44, 19.62618
2020/07/31 23:46, 19.62127
2020/07/31 23:48, 19.5962
2020/07/31 23:50, 19.48744
2020/07/31 23:52, 19.41404
2020/07/31 23:54, 19.08717
2020/07/31 23:56, 19.04889
2020/07/31 23:58, 19.1191
2020/08/01 00:00, 19.13982
2020/08/01 00:02, 19.12405
2020/08/01 00:04, 19.38623
2020/08/01 00:06, 19.40431
2020/08/01 00:08, 19.37602
2020/08/01 00:10, 19.26529
2020/08/01 00:12, 19.00894
2020/08/01 00:14, 18.60661
2020/08/01 00:16, 16.92141
2020/08/01 00:18, 14.46149
2020/08/01 00:20, 14.76045
2020/08/01 00:24, 16.72396
2020/08/01 00:26, 17.08246
2020/08/01 00:28, 18.72581
2020/08/01 00:30, 19.05021
2020/08/01 00:32, 18.56541
2020/08/01 00:34, 17.80083
2020/08/01 00:36, 16.84587
2020/08/01 00:38, 17.5767
2020/08/01 00:40, 17.17382
2020/08/01 00:42, 17.24847
2020/08/01 00:44, 18.32117
2020/08/01 00:46, 17.98183
2020/08/01 00:48, 17.21327
2020/08/01 00:50, 13.97249
2020/08/01 00:52, 13.32801
2020/08/01 00:54, 12.83218
2020/08/01 00:56, 12.48387
2020/08/01 00:58, 12.93247
2020/08/01 01:00, 13.16307
2020/08/01 01:02, 13.00881
2020/08/01 01:04, 13.18818
2020/08/01 01:06, 12.92794
2020/08/01 01:08, 12.8814
2020/08/01 01:10, 13.59408
2020/08/01 01:12, 13.26693
2020/08/01 01:14, 12.92203
2020/08/01 01:16, 12.72208
2020/08/01 01:18, 12.52186
2020/08/01 01:20, 12.08146
2020/08/01 01:24, 10.20739
2020/08/01 01:26, 8.885293
2020/08/01 01:28, 7.629328
2020/08/01 01:30, 6.541231
2020/08/01 01:32, 5.413211